Wind_Speed
6 6 5 6 5 6 7 7 8 8 7 9 11 12 13 13 15 17 17 14 18 24 24 23 27 29 29 24 21 19 18 19 19 18 19 19 19 20 14 6 0 9 8 9 13
8 8 7 8 8 9 9 9 9 9 8 8 8 9 12 14 14 15 16 16 16 21 22 21 26 28 29 25 23 20 18 20 20 20 21 20 24 25 18 10 8 7 6 11 15
9 9 9 10 11 12 12 12 11 9 8 8 8 9 9 12 14 14 16 17 16 18 21 20 25 28 29 26 24 21 21 22 21 22 23 25 29 28 20 11 6 1 8 7 10
8 8 8 9 9 9 10 12 14 12 10 10 10 10 11 10 11 13 15 16 17 17 19 19 20 27 28 28 26 26 25 26 24 22 26 29 33 28 21 13 10 5 7 9 12
10 9 10 11 11 11 10 10 10 12 12 12 12 12 11 10 9 13 14 16 18 17 18 18 19 24 31 31 30 29 30 30 28 30 30 33 35 29 17 16 15 7 8 11 12
14 13 14 15 15 14 13 12 12 11 11 13 13 13 11 10 12 12 12 15 17 18 18 20 22 23 25 29 31 31 33 33 33 33 31 31 33 26 20 19 19 12 8 11 13
15 16 17 17 18 18 17 17 16 14 13 13 14 15 12 12 12 12 10 13 16 18 19 20 22 21 19 22 27 31 33 33 32 30 30 31 29 26 22 22 15 8 8 10 13
15 16 18 19 20 19 19 18 18 17 15 15 15 15 13 15 12 11 11 12 14 17 19 20 16 17 19 18 19 21 23 26 24 26 28 27 26 23 19 18 8 4 9 13 16
16 17 19 20 21 22 22 21 21 18 18 18 17 16 15 15 15 14 14 14 14 15 18 19 16 16 16 16 16 19 20 20 19 23 25 23 25 23 20 14 7 8 8 14 13
16 17 19 20 21 20 21 20 20 20 21 21 19 19 16 16 16 16 15 16 16 14 14 16 15 17 16 16 17 21 20 18 19 22 25 26 24 25 20 14 16 11 17 18 18
18 18 19 20 20 19 19 20 19 18 21 20 22 21 19 17 17 16 18 16 17 15 15 16 15 17 23 22 23 23 21 18 20 22 27 27 26 25 20 19 17 14 19 21 20
20 21 20 21 21 22 22 21 21 18 22 21 21 26 21 17 20 19 19 19 18 19 17 15 15 21 25 24 24 24 24 20 25 27 28 28 24 25 23 21 19 16 17 14 18
24 25 26 24 24 25 24 23 20 17 19 21 21 22 21 20 24 25 22 21 19 20 18 17 21 22 23 24 25 27 26 23 25 27 31 28 28 28 26 22 18 15 11 12 16
24 25 25 26 25 25 24 23 20 16 18 19 22 22 24 21 24 24 25 21 18 21 20 14 22 22 23 22 24 25 26 30 31 33 31 31 31 28 26 21 15 12 11 10 15
23 27 24 26 24 23 22 22 20 20 22 19 19 19 23 19 24 25 24 23 20 24 21 19 24 24 23 23 25 22 31 32 33 39 39 36 36 32 30 26 11 12 12 12 18
22 24 22 23 22 20 20 21 21 19 16 15 16 18 20 21 20 24 24 24 26 24 20 16 24 26 23 28 25 23 28 32 36 39 42 38 39 37 31 21 17 16 13 16 21
21 22 22 21 21 20 20 21 18 17 17 17 14 14 14 18 21 20 21 21 25 27 24 24 24 26 25 26 23 21 26 30 32 36 40 39 40 36 29 24 22 21 16 17 21
24 24 22 20 20 21 21 22 21 21 18 16 15 17 18 15 16 19 21 20 21 26 28 27 26 25 24 24 26 28 27 30 34 33 34 39 40 35 31 26 26 23 24 25 24
27 26 24 21 21 23 24 22 21 21 20 18 18 19 20 22 23 18 18 20 23 22 24 26 27 28 28 30 33 36 35 32 34 36 36 39 39 35 31 29 29 28 30 28 20
24 25 26 25 24 25 26 24 20 19 20 19 16 19 20 22 25 26 27 27 24 22 24 26 26 23 25 31 34 36 37 34 31 34 35 35 36 31 25 24 24 24 24 20 21
24 22 21 21 22 23 25 25 24 23 22 21 22 24 22 20 22 23 29 33 35 33 30 30 31 26 26 29 33 38 38 36 37 38 39 37 36 30 27 28 27 27 28 26 26
27 24 23 23 21 20 22 25 26 26 24 24 24 24 24 25 27 26 29 30 30 35 39 42 40 35 28 28 35 35 40 44 42 42 40 40 36 28 24 22 23 23 23 21 20
31 28 26 26 25 26 27 27 27 26 27 28 27 26 26 27 29 30 31 32 36 32 35 38 41 46 38 37 32 34 38 40 44 44 43 37 36 29 28 24 24 25 23 23 23
35 34 32 30 30 29 30 31 32 34 33 31 31 32 31 32 32 34 35 36 36 38 37 36 42 45 48 45 46 39 37 39 44 48 47 42 36 32 30 27 27 28 27 24 23
34 35 36 35 34 35 36 38 36 36 36 35 35 36 37 36 34 36 38 38 36 37 38 38 39 44 47 50 50 51 44 41 45 50 53 45 40 25 30 31 32 30 28 27 23
32 34 35 37 38 41 40 37 38 38 39 39 39 40 40 40 40 39 39 40 40 36 35 35 38 43 41 44 50 50 54 48 50 48 54 47 45 34 29 36 38 38 31 31 26
36 35 35 35 35 38 41 42 42 44 44 44 43 43 43 46 46 42 41 40 39 38 33 34 36 40 50 46 45 50 48 51 46 51 48 50 41 39 39 34 36 40 38 35 30
Wind_Direction
264 267 269 271 280 285 292 301 300 300 302 287 272 263 259 258 252 247 248 250 237 236 236 232 233 230 236 234 233 235 233 237 242 249 250 260 291 294 299 268 1 338 2 21 20
262 267 273 278 280 281 284 288 292 298 301 299 295 276 261 257 256 254 248 245 243 242 243 235 232 228 233 232 230 233 232 236 238 243 245 256 288 289 294 285 276 285 338 351 356
272 271 273 277 276 276 277 279 280 287 299 306 303 291 282 264 257 255 252 245 243 243 244 236 231 227 231 232 230 232 230 235 237 240 248 261 281 283 290 295 291 346 340 308 314
269 275 280 278 279 280 282 278 275 276 279 288 299 306 285 284 266 258 253 246 240 241 241 238 230 223 229 230 228 232 231 236 239 242 254 261 271 279 286 295 293 300 339 289 291
273 276 278 278 280 283 283 287 287 281 272 272 279 289 298 283 267 257 255 249 241 235 240 238 231 221 223 227 229 231 237 240 248 254 251 257 264 271 280 283 291 296 314 302 309
276 277 276 276 278 279 282 281 282 285 283 274 272 276 286 283 269 267 255 252 242 234 233 236 230 229 229 229 232 234 240 246 252 254 253 253 260 274 279 285 295 293 281 288 299
281 281 279 278 277 276 276 278 279 279 278 277 272 271 275 269 271 269 266 256 248 239 233 234 239 239 238 234 235 239 242 248 251 252 253 255 263 272 275 281 281 283 280 285 285
284 284 284 284 283 282 279 278 275 273 272 270 269 268 266 266 268 265 256 252 249 245 245 239 240 243 235 236 236 241 246 248 248 248 250 257 256 262 264 275 261 274 285 289 285
285 286 284 284 283 283 283 280 277 273 269 265 262 261 262 259 262 257 252 252 251 247 243 241 232 242 233 231 231 232 238 238 245 247 253 262 258 259 263 267 255 246 273 275 259
284 284 285 285 285 286 286 284 281 276 266 266 265 262 257 258 255 255 257 248 250 252 250 244 231 235 231 221 220 223 227 236 248 252 256 257 256 256 257 244 257 267 274 283 293
286 288 291 291 292 295 294 290 284 278 273 265 259 260 255 252 253 248 253 249 247 248 248 243 235 235 231 225 221 219 219 232 249 249 249 252 242 244 237 244 258 279 297 317 329
286 290 293 294 297 298 295 293 293 288 277 267 265 259 255 250 247 241 240 245 243 239 240 240 232 231 235 233 232 233 227 229 242 247 248 243 240 242 242 246 258 281 291 315 322
287 288 289 293 296 296 294 292 290 288 281 278 269 261 256 240 242 241 238 238 237 244 239 238 235 236 238 238 237 235 238 229 232 227 239 243 248 250 256 264 274 278 281 302 310
285 285 285 289 293 291 292 293 294 287 281 278 269 264 261 245 250 251 248 241 238 242 241 248 250 243 236 235 237 238 235 228 222 222 226 239 246 250 254 268 272 253 262 305 326
285 282 283 286 285 284 289 292 291 291 293 276 277 264 263 255 254 253 251 254 238 239 238 237 249 242 239 237 237 237 236 231 230 227 231 235 248 255 259 256 254 242 263 301 318
289 280 279 279 277 279 281 286 290 290 290 284 281 270 269 268 261 263 264 257 249 245 239 237 251 252 247 241 238 239 243 238 232 232 235 242 248 255 261 264 260 266 272 308 317
284 277 274 273 274 274 273 276 278 282 290 296 292 279 268 269 273 265 267 269 264 254 243 231 234 240 241 247 252 246 244 245 247 239 244 245 248 259 263 269 274 274 286 307 305
278 272 269 269 273 271 268 268 269 282 290 289 288 285 283 272 268 275 281 278 267 269 259 246 241 240 238 237 236 239 239 243 247 244 247 249 253 255 258 267 279 285 289 297 298
280 271 264 263 266 267 269 269 275 280 280 280 283 286 290 289 289 274 276 283 286 276 276 266 243 241 237 232 225 228 239 245 250 256 257 256 259 263 264 265 265 270 281 290 277
277 276 268 265 265 262 264 268 268 270 273 273 274 282 282 283 289 288 286 282 278 283 281 278 268 242 241 241 238 236 231 235 242 258 260 260 258 258 257 262 261 269 270 272 285
269 270 274 271 266 260 256 258 264 272 277 277 281 278 278 272 269 270 271 277 280 283 280 276 273 257 240 246 240 238 239 238 242 245 258 264 263 261 258 263 272 270 276 276 278
266 264 265 267 264 259 258 264 271 277 279 280 280 282 284 284 283 274 269 268 267 269 272 273 273 267 256 252 242 237 237 241 240 239 250 260 264 264 263 274 276 278 280 281 285
265 262 261 261 263 264 265 269 271 270 275 277 278 280 281 284 282 278 280 280 270 273 270 266 265 266 258 260 246 239 238 237 244 246 249 254 260 260 259 263 268 276 283 282 291
259 265 264 261 260 265 268 268 267 267 270 272 274 277 280 280 281 279 277 280 278 275 281 275 264 262 262 251 250 251 239 249 243 242 246 245 255 263 262 266 269 276 284 290 306
257 258 263 268 266 265 268 270 266 267 270 271 274 277 280 278 277 279 278 278 280 280 284 290 283 268 261 258 254 243 236 240 245 242 246 247 254 248 261 268 268 273 281 288 301
264 263 262 264 267 271 268 265 265 266 270 272 276 279 278 278 281 279 278 279 281 280 281 287 289 274 264 263 260 257 246 242 235 239 244 249 254 251 258 264 267 269 276 289 298
268 268 266 263 264 265 268 269 270 271 272 274 274 273 276 278 279 275 275 276 280 282 279 280 285 284 272 269 265 259 257 251 242 239 243 245 249 252 256 253 258 263 271 280 295
Height
5853 5853 5852 5851 5851 5852 5852 5852 5852 5851 5850 5849 5848 5847 5846 5847 5847 5848 5849 5851 5851 5851 5852 5855 5857 5860 5861 5865 5869 5871 5873 5873 5875 5877 5877 5878 5881 5881 5882 5883 5879 5878 5876 5875 5874
5850 5851 5850 5850 5849 5850 5850 5850 5850 5849 5848 5847 5845 5844 5843 5843 5844 5845 5847 5847 5847 5847 5850 5853 5853 5856 5858 5862 5865 5867 5870 5870 5872 5874 5874 5875 5878 5878 5880 5882 5880 5878 5875 5873 5872
5849 5848 5847 5847 5847 5847 5847 5848 5847 5847 5846 5845 5843 5842 5841 5841 5842 5842 5843 5844 5845 5845 5847 5850 5850 5853 5856 5859 5863 5865 5866 5866 5869 5871 5872 5873 5875 5875 5877 5879 5879 5877 5876 5874 5872
5846 5845 5845 5845 5845 5845 5845 5845 5844 5844 5843 5842 5841 5840 5839 5839 5841 5839 5840 5841 5842 5842 5844 5846 5848 5850 5853 5855 5859 5860 5861 5862 5865 5869 5870 5870 5871 5873 5874 5877 5877 5877 5874 5872 5871
5844 5842 5842 5843 5843 5843 5843 5842 5842 5841 5841 5840 5839 5838 5837 5837 5837 5836 5837 5838 5839 5840 5841 5843 5845 5846 5848 5851 5854 5856 5856 5858 5862 5864 5866 5866 5866 5870 5872 5874 5875 5873 5871 5869 5868
5840 5838 5839 5839 5840 5840 5840 5840 5839 5838 5838 5837 5836 5835 5835 5834 5833 5833 5834 5835 5836 5837 5838 5840 5840 5842 5845 5848 5851 5852 5853 5855 5857 5858 5860 5863 5864 5865 5869 5870 5870 5870 5869 5867 5866
5836 5835 5835 5836 5836 5836 5836 5836 5836 5835 5834 5834 5833 5832 5832 5832 5830 5831 5832 5832 5833 5834 5835 5837 5838 5841 5844 5846 5847 5848 5850 5852 5854 5855 5856 5858 5861 5864 5867 5868 5867 5865 5864 5863 5863
5832 5832 5831 5831 5832 5832 5832 5832 5831 5831 5830 5829 5829 5829 5829 5828 5828 5828 5829 5829 5830 5831 5833 5835 5837 5839 5840 5843 5844 5845 5847 5849 5851 5851 5852 5855 5858 5860 5862 5862 5863 5862 5860 5859 5858
5828 5828 5827 5827 5827 5827 5826 5826 5826 5826 5825 5824 5825 5825 5826 5825 5825 5825 5825 5826 5826 5827 5829 5832 5834 5837 5837 5839 5841 5842 5843 5845 5846 5847 5849 5852 5853 5857 5858 5857 5857 5857 5858 5857 5854
5824 5824 5824 5823 5822 5822 5821 5821 5821 5821 5820 5820 5821 5823 5823 5821 5821 5821 5822 5822 5822 5824 5826 5829 5831 5833 5834 5835 5837 5838 5839 5841 5843 5845 5846 5847 5849 5850 5853 5851 5851 5853 5852 5851 5851
5821 5821 5820 5819 5818 5818 5818 5817 5818 5817 5815 5816 5816 5815 5817 5817 5817 5817 5817 5818 5819 5820 5822 5824 5828 5829 5829 5831 5832 5834 5836 5839 5840 5841 5841 5844 5845 5847 5846 5847 5849 5851 5850 5850 5847
5817 5816 5816 5815 5814 5813 5813 5812 5812 5812 5810 5811 5811 5809 5813 5814 5812 5812 5813 5814 5815 5815 5818 5822 5823 5823 5824 5827 5829 5831 5833 5836 5835 5835 5836 5837 5842 5841 5842 5844 5847 5848 5850 5848 5846
5813 5812 5811 5811 5810 5809 5808 5808 5808 5808 5806 5806 5807 5806 5808 5809 5805 5806 5808 5808 5811 5812 5813 5817 5817 5819 5821 5823 5825 5827 5830 5832 5832 5829 5829 5832 5834 5836 5838 5841 5842 5844 5845 5844 5844
5808 5806 5806 5806 5807 5804 5803 5803 5804 5804 5804 5804 5802 5802 5802 5805 5804 5804 5803 5806 5807 5807 5808 5813 5811 5814 5816 5819 5819 5823 5825 5824 5825 5823 5826 5827 5829 5831 5834 5837 5839 5840 5841 5840 5840
5803 5801 5802 5800 5800 5800 5800 5799 5799 5800 5799 5800 5798 5798 5797 5801 5800 5800 5800 5801 5802 5801 5806 5809 5807 5808 5811 5812 5814 5820 5816 5819 5821 5820 5821 5824 5824 5828 5829 5834 5836 5837 5836 5836 5836
5798 5796 5797 5796 5796 5796 5795 5795 5796 5797 5795 5796 5795 5794 5795 5795 5796 5796 5798 5799 5798 5799 5801 5804 5803 5805 5809 5806 5809 5813 5813 5814 5815 5816 5816 5820 5820 5822 5824 5829 5831 5831 5833 5833 5833
5792 5791 5792 5792 5792 5792 5792 5792 5793 5792 5793 5793 5791 5791 5791 5791 5790 5792 5793 5795 5795 5795 5796 5797 5797 5798 5801 5803 5807 5809 5808 5809 5810 5812 5813 5816 5814 5817 5820 5823 5825 5827 5828 5828 5828
5786 5786 5787 5787 5787 5787 5787 5788 5788 5789 5788 5787 5786 5785 5785 5788 5788 5787 5787 5789 5790 5791 5793 5795 5796 5795 5798 5801 5802 5803 5804 5804 5803 5806 5808 5808 5808 5814 5817 5819 5819 5820 5822 5823 5823
5779 5780 5781 5782 5782 5782 5783 5783 5784 5784 5784 5784 5782 5782 5782 5781 5781 5784 5784 5784 5783 5785 5788 5790 5793 5790 5792 5793 5795 5797 5798 5801 5799 5800 5801 5804 5804 5807 5811 5814 5816 5817 5818 5818 5819
5773 5773 5775 5777 5776 5777 5777 5777 5778 5778 5778 5779 5780 5779 5778 5778 5777 5777 5777 5778 5779 5780 5781 5782 5784 5790 5789 5789 5790 5789 5792 5794 5795 5794 5795 5796 5798 5801 5806 5809 5811 5813 5813 5814 5813
5767 5768 5769 5769 5770 5770 5771 5771 5772 5773 5774 5774 5774 5774 5775 5774 5773 5772 5772 5772 5772 5774 5774 5775 5776 5782 5786 5785 5786 5786 5786 5788 5788 5788 5786 5789 5792 5798 5801 5804 5806 5807 5807 5808 5808
5761 5762 5762 5763 5765 5765 5765 5765 5766 5766 5767 5767 5768 5768 5768 5768 5767 5767 5767 5766 5767 5767 5768 5767 5766 5769 5775 5777 5778 5779 5778 5778 5779 5780 5781 5782 5786 5792 5796 5799 5800 5801 5801 5802 5803
5753 5755 5756 5756 5758 5759 5759 5759 5759 5760 5760 5760 5760 5761 5761 5761 5760 5759 5758 5758 5757 5758 5757 5758 5758 5757 5765 5767 5771 5773 5773 5773 5773 5774 5776 5777 5781 5787 5790 5793 5795 5795 5796 5795 5797
5746 5745 5747 5747 5749 5750 5751 5751 5751 5752 5752 5752 5752 5752 5752 5752 5751 5751 5751 5750 5749 5748 5747 5749 5749 5749 5749 5755 5757 5761 5767 5767 5766 5768 5767 5768 5775 5779 5784 5787 5788 5789 5790 5791 5792
5737 5737 5737 5737 5739 5740 5741 5743 5742 5742 5742 5742 5742 5742 5742 5742 5743 5742 5741 5741 5741 5741 5739 5738 5739 5739 5739 5740 5744 5747 5753 5757 5757 5760 5758 5768 5767 5772 5777 5780 5782 5783 5784 5786 5787
5726 5728 5728 5729 5728 5729 5730 5732 5733 5733 5733 5732 5732 5731 5730 5731 5733 5732 5732 5730 5732 5732 5730 5729 5727 5728 5729 5730 5731 5733 5741 5746 5749 5750 5753 5758 5760 5767 5770 5773 5775 5778 5779 5780 5781
5716 5716 5717 5718 5719 5719 5720 5719 5720 5721 5721 5722 5721 5721 5720 5720 5720 5720 5721 5721 5721 5722 5721 5721 5719 5718 5717 5721 5721 5724 5733 5734 5739 5742 5744 5748 5755 5760 5764 5765 5768 5770 5772 5774 5775